Location: Plymouth Village
(34.0436°N, 117.1717°W)
Time: 03:31:16
(UTC+00:00)

Cosmos 2151 - Pass Details

Date: 10 September 2024
Orbit: 567 x 586 km, 82.5° (Epoch: 06 October)

Event Time Altitude Azimuth Distance (km) Brightness Sun altitude
Rises 12:47:54 0° 349° (NNW) 2,771 6.4 -9.2°
Reaches altitude 10° 12:50:06 10° 345° (NNW) 1,871 5.5 -8.8°
Maximum altitude 12:54:10 60° 266° (W) 657 2.9 -8.0°
Drops below altitude 10° 12:58:12 10° 187° (S) 1,866 5.4 -7.1°
Sets 13:00:24 0° 183° (S) 2,763 6.3 -6.7°
